Location: Remedello Sotto
(45.2500°N, 10.3667°E)
Time: 18:58:32
(UTC+00:00)

CZ-4B DEB - Visible Passes

Search period start: 01 October 2023 00:00
Search period end: 11 October 2023 00:00
Orbit: 837 x 860 km, 99.0° (Epoch: 30 September)

Date Brightness Start Highest point End Pass type
(mag) Time Alt. Az. Time Alt. Az. Time Alt. Az.
01 Oct 5.7 18:56:00 10° SSW 19:00:56 35° W 19:05:54 10° NNW visible
02 Oct 5.3 18:43:15 10° S 18:48:25 44° W 18:53:38 10° NNW visible
03 Oct 4.8 18:30:36 10° S 18:35:55 57° WSW 18:41:18 10° NNW visible
04 Oct 4.4 18:18:02 10° S 18:23:27 72° WSW 18:28:55 10° NNW visible
05 Oct 4.2 18:05:34 10° SSE 18:11:01 90° E 18:16:30 10° NNW visible
05 Oct 7.0 19:50:01 10° WSW 19:52:23 13° W 19:54:46 10° WNW visible
06 Oct 4.1 17:53:11 10° SSE 17:58:36 72° ENE 18:04:02 10° N visible
06 Oct 6.8 19:36:21 10° SW 19:39:46 17° W 19:43:12 10° NW visible
07 Oct 4.3 17:40:53 10° SSE 17:46:11 57° ENE 17:51:31 10° N visible
07 Oct 6.5 19:23:05 10° SW 19:27:11 21° W 19:31:17 10° NW visible
08 Oct 4.5 17:28:40 10° SE 17:33:49 45° ENE 17:38:58 10° N visible
08 Oct 6.1 19:10:02 10° SSW 19:14:36 27° W 19:19:13 10° NW visible
09 Oct 4.8 17:16:32 10° SE 17:21:27 36° ENE 17:26:22 10° N visible
09 Oct 5.7 18:57:08 10° SSW 19:02:03 34° W 19:07:01 10° NNW visible
10 Oct 5.0 17:04:30 10° ESE 17:09:07 29° ENE 17:13:44 10° N visible
10 Oct 5.3 18:44:22 10° S 18:49:32 44° W 18:54:44 10° NNW visible
